Temperature
5 5 6 6 7 8 9 9 9 9 10 10 10 10 11 11 11 12 13 14 15 16 16 16 16 16 16 16 16 16 16 16 15 15 15 15 15 14 14 14 14 14 14 14
5 5 6 7 8 8 8 9 9 9 10 10 10 10 11 11 11 12 13 13 15 15 16 16 16 16 16 16 16 16 16 16 15 15 15 15 15 14 14 14 14 14 14 14
5 6 7 7 8 8 8 9 9 9 10 10 10 10 10 11 12 12 13 14 15 15 16 16 16 16 16 16 16 16 16 16 15 15 15 14 14 14 14 14 14 14 14 14
6 6 7 7 8 8 8 9 10 10 9 9 10 9 10 11 11 11 12 13 14 15 16 16 16 16 16 16 16 16 16 16 15 15 15 15 14 14 14 14 14 14 14 14
6 7 7 8 8 9 9 9 10 10 9 9 9 9 10 10 11 11 12 13 15 15 16 16 16 16 16 16 16 16 16 15 15 15 15 15 15 14 14 14 14 14 14 14
6 7 7 8 9 9 9 9 9 9 9 9 9 9 10 10 11 11 12 13 15 15 15 16 16 16 16 16 16 16 15 15 15 15 15 15 15 14 14 14 14 14 14 14
7 7 7 8 9 9 9 8 8 8 8 9 10 10 10 11 12 12 12 13 14 15 15 15 15 15 15 15 15 15 15 15 15 15 14 14 14 14 14 14 14 14 14 14
6 6 7 8 8 8 9 9 8 8 8 8 10 10 11 12 12 12 13 13 14 14 14 15 15 15 15 15 15 15 15 15 14 14 14 14 14 14 14 13 13 13 13 13
6 6 7 8 8 9 9 8 9 8 8 8 9 10 11 12 11 11 12 13 13 14 14 14 14 14 14 14 14 14 14 14 14 14 14 13 13 13 13 13 13 13 13 12
7 7 7 8 9 9 9 9 7 7 8 8 10 10 10 11 11 10 10 11 12 13 13 13 13 14 14 14 13 13 13 13 13 13 13 13 13 13 12 12 12 12 12 12
7 6 7 7 8 8 9 9 8 7 7 8 8 9 10 9 9 10 10 11 12 12 13 13 13 13 13 13 13 12 12 12 12 12 12 12 12 12 12 11 11 11 11 11
7 6 6 7 8 8 9 9 8 7 7 6 7 8 9 9 9 10 10 11 12 12 12 12 12 12 12 12 12 12 11 11 11 11 11 11 11 11 11 11 11 10 10 10
8 6 5 6 7 8 9 9 9 7 6 6 7 9 9 8 9 10 10 10 11 11 11 11 11 11 11 11 11 11 11 10 10 9 9 10 10 10 10 10 10 10 10 9
8 6 5 6 7 7 8 9 9 7 6 7 8 8 9 8 8 8 9 10 10 10 10 10 10 10 10 10 10 10 10 9 9 9 9 9 9 9 9 9 9 9 9 9
7 6 6 7 8 8 8 8 8 7 7 7 8 8 8 8 7 8 8 8 8 8 9 9 9 9 9 9 9 9 9 9 8 8 8 8 8 8 9 9 9 8 8 8
6 6 6 6 7 8 8 8 8 8 8 8 8 7 7 7 7 7 7 7 7 7 7 8 8 8 9 9 9 9 9 8 8 8 8 8 8 8 8 8 8 8 7 7
5 5 5 5 7 7 6 7 7 7 7 7 7 7 6 6 6 6 5 5 5 6 6 7 7 7 8 8 8 8 9 8 8 8 8 8 8 8 8 8 7 7 6 5
5 4 3 4 6 5 6 7 7 5 5 5 5 5 5 5 6 5 5 5 5 5 6 6 6 7 7 8 8 8 8 8 8 8 8 8 7 7 7 7 7 6 5 4
5 5 4 4 5 5 6 6 6 6 4 4 4 4 4 5 5 5 5 4 4 4 5 5 6 6 7 7 7 8 8 8 8 8 8 7 7 7 7 6 6 5 4 3
5 4 4 4 5 5 6 6 6 6 4 3 3 3 3 4 3 4 4 4 4 4 4 4 5 5 6 6 7 7 7 7 7 7 7 7 6 6 6 6 5 4 3 2
5 4 4 4 4 4 5 5 6 5 4 3 3 2 2 2 2 3 3 3 3 3 3 4 4 5 5 5 6 6 6 6 6 6 6 6 6 5 5 5 4 3 2 1
4 3 3 3 4 4 4 4 4 3 3 2 2 2 2 2 2 2 2 2 2 2 2 3 3 4 4 4 4 5 5 5 5 5 5 5 5 4 4 4 3 2 2 1
3 3 3 3 3 3 3 3 2 3 2 2 1 1 1 1 1 1 1 1 1 1 1 2 2 2 3 3 3 3 4 4 4 4 4 4 4 4 3 3 3 2 1 1
2 2 2 2 2 2 2 2 2 2 1 1 1 1 0 0 0 0 0 0 0 0 1 1 1 1 2 2 3 3 3 3 3 3 3 3 3 3 3 3 2 2 1 1
2 2 2 2 1 1 1 1 1 1 1 1 0 0 -0 -0 -0 -0 -0 -0 -0 -0 -0 -0 -0 0 1 2 2 2 2 2 2 2 2 2 2 2 2 2 2 2 2 1
0 1 1 1 1 0 1 1 1 1 0 0 -0 -0 -0 -1 -1 -1 -1 -1 -1 -1 -1 -1 -0 -0 0 1 1 1 1 2 2 2 2 2 2 2 2 2 2 1 1 1
Wind_Speed
1 2 4 5 5 4 7 7 6 4 4 5 6 4 5 5 4 6 7 7 7 8 7 6 7 8 8 9 10 11 11 10 9 6 6 5 5 4 4 5 9 9 9 8
2 2 3 3 5 6 7 9 6 5 5 4 4 5 6 6 7 8 9 10 9 7 5 7 7 7 8 9 10 10 10 10 9 7 6 4 4 3 3 3 5 7 7 7
2 2 4 5 6 8 6 6 7 7 5 3 5 3 7 7 7 9 10 10 9 10 10 9 8 8 8 9 10 10 10 9 9 8 5 4 4 3 3 3 3 4 7 7
0 1 4 6 6 6 4 5 7 10 8 3 5 2 6 8 9 11 13 11 10 9 9 9 9 8 8 7 6 7 8 8 7 8 8 8 6 5 5 4 4 3 5 6
1 3 6 6 5 5 4 6 7 8 6 4 3 2 5 5 9 13 14 12 10 10 9 10 10 10 7 6 6 5 6 5 5 6 8 8 6 4 4 4 6 4 3 5
3 2 1 1 2 4 6 8 7 5 3 2 4 4 5 4 9 9 10 10 9 8 8 8 7 6 5 5 5 5 6 4 4 5 6 8 9 8 7 6 6 4 3 2
5 4 3 2 4 5 7 7 4 3 2 3 3 4 6 6 5 8 8 6 5 5 5 6 7 7 7 6 5 5 6 4 3 4 4 6 7 9 8 7 6 5 3 2
4 3 4 4 2 4 4 4 5 5 5 1 2 5 5 4 1 2 4 4 3 3 4 5 6 7 6 5 5 5 5 5 5 5 5 4 6 5 5 5 5 5 4 3
4 2 3 3 2 3 4 2 3 5 4 3 2 3 4 4 4 5 5 5 4 3 3 4 4 4 5 5 5 5 5 5 5 6 6 5 6 6 6 6 5 4 4 3
4 5 3 3 4 4 3 4 5 5 5 3 1 2 3 3 1 3 5 5 4 4 3 3 2 2 2 3 3 4 4 5 5 6 6 5 5 6 6 6 6 5 4 4
3 4 3 4 3 2 3 3 4 4 3 5 3 4 4 6 4 5 4 3 4 4 3 1 1 1 2 2 3 4 4 5 5 5 6 6 5 5 6 5 5 5 4 4
2 4 3 2 3 2 1 1 3 4 1 3 4 3 6 1 3 5 5 4 4 4 3 2 2 1 1 3 3 4 5 5 5 5 6 6 6 6 6 6 5 5 5 4
3 5 4 3 4 3 1 1 3 5 4 3 3 2 5 6 7 6 6 5 5 5 5 4 3 2 3 3 4 5 5 6 6 6 7 6 6 6 6 6 6 5 5 4
4 4 4 6 4 3 2 1 3 5 3 2 3 2 3 5 6 6 6 5 5 5 4 4 4 4 4 4 4 5 6 6 7 7 7 7 6 6 6 6 6 5 5 5
4 4 3 1 1 3 2 2 3 4 5 5 3 2 1 1 3 3 5 6 6 6 6 6 5 5 5 5 5 5 6 6 7 8 8 8 7 6 6 6 6 5 5 5
4 4 3 3 3 2 2 1 2 3 3 4 3 2 1 1 3 5 6 6 7 7 7 7 7 7 6 6 6 6 7 7 8 9 9 8 7 7 7 6 6 6 5 5
3 4 3 1 3 4 3 4 3 2 0 2 4 2 1 2 4 4 5 6 6 7 8 8 8 8 8 7 7 8 8 7 8 9 9 9 9 8 7 7 7 6 6 5
5 4 3 2 2 2 4 2 3 7 6 5 4 3 3 1 1 4 4 5 6 8 9 9 9 9 9 8 7 7 6 7 9 9 9 9 9 9 8 7 7 6 5 5
4 5 4 3 2 3 3 2 1 4 2 4 3 3 5 4 1 1 4 6 6 7 8 8 9 9 9 9 7 5 5 6 8 9 10 10 10 10 9 9 8 6 5 5
4 5 4 3 3 5 4 2 2 3 2 2 3 4 5 5 2 3 7 8 8 8 8 9 9 8 9 8 6 4 5 6 9 9 9 9 10 10 10 9 7 5 5 5
2 2 3 3 3 4 3 4 1 3 3 1 2 2 3 2 4 7 9 8 8 8 9 9 9 8 8 8 5 4 5 7 7 5 6 8 9 9 9 8 6 6 6 6
5 4 4 4 4 6 1 2 3 2 2 2 1 2 3 5 7 8 8 9 9 9 9 9 9 9 8 7 5 6 6 5 3 5 7 8 8 8 7 8 7 7 8 8
4 5 4 5 4 1 3 4 3 3 2 1 2 3 5 6 7 8 8 8 9 9 9 8 9 10 9 7 5 7 6 4 4 5 6 7 8 7 8 9 9 8 8 7
1 1 3 2 2 3 4 4 3 2 1 1 3 4 5 7 8 9 9 9 8 8 8 8 9 9 9 8 7 6 6 4 5 6 6 6 8 8 8 8 8 8 9 8
4 3 3 2 2 3 1 1 1 1 1 3 4 5 6 7 8 9 9 9 9 9 8 8 9 10 10 10 9 7 5 4 6 6 6 7 8 8 9 9 9 9 9 10
3 5 5 5 5 4 4 2 1 1 3 4 5 7 6 6 8 9 9 9 9 9 9 9 9 10 10 10 10 8 5 5 5 6 6 6 7 7 7 8 8 12 12 15
Wind_Direction
125 161 191 196 193 141 135 143 151 156 151 152 170 192 231 240 244 253 253 249 237 228 230 213 195 183 174 176 180 183 181 178 171 170 170 169 176 173 172 179 186 186 186 185
120 183 198 178 163 136 135 139 138 128 151 151 172 222 243 238 230 235 239 240 236 232 227 215 202 187 182 181 184 186 185 180 180 180 173 166 160 163 167 161 159 166 165 164
142 177 161 155 146 139 136 149 148 136 138 115 136 237 246 245 239 244 241 237 230 217 209 206 202 198 186 185 185 186 189 184 183 174 156 134 123 118 142 158 151 150 149 147
89 190 158 150 153 145 147 160 148 143 139 153 162 199 245 226 237 242 244 238 227 220 210 203 201 200 198 194 184 180 180 179 177 170 168 165 171 180 186 170 155 138 131 129
105 144 152 158 171 162 155 150 145 142 133 114 152 164 269 210 227 236 237 236 231 221 208 204 203 200 192 175 166 164 158 163 169 176 178 174 173 169 145 135 138 134 117 117
82 81 93 176 138 141 124 112 95 82 86 127 190 174 266 223 217 226 228 230 230 223 213 210 200 179 166 154 149 149 149 153 157 169 177 174 167 156 149 149 151 145 127 101
52 40 10 16 80 88 119 122 109 91 101 223 200 184 253 256 228 209 206 211 220 208 192 190 179 174 172 169 162 155 151 149 143 146 156 164 161 158 161 161 160 155 153 148
80 51 1 15 69 121 129 131 145 150 168 222 161 212 261 302 335 120 136 139 134 145 160 168 176 176 173 170 162 159 158 151 143 137 133 132 140 145 147 149 151 156 159 155
110 63 356 4 17 111 118 126 157 118 112 109 229 273 332 20 46 66 75 81 90 105 120 141 156 166 173 176 179 174 166 159 151 143 134 130 131 135 137 136 131 136 139 146
109 98 19 350 38 25 122 134 87 98 128 141 228 273 252 255 198 84 81 84 78 81 81 94 123 156 171 182 183 170 169 171 159 151 146 138 135 132 130 129 132 137 141 141
90 102 46 41 47 33 35 67 87 94 122 139 157 271 267 227 201 147 117 100 90 80 81 78 113 162 166 170 178 180 175 166 161 157 144 138 135 128 125 129 138 143 142 143
98 102 82 1 292 244 77 97 116 124 117 120 131 281 323 65 107 109 92 60 48 51 44 31 15 1 211 206 202 196 186 179 174 161 150 146 141 139 139 143 146 143 139 140
110 106 97 18 340 345 17 73 116 113 106 120 134 262 358 52 61 59 63 49 37 36 30 20 8 326 274 245 225 210 198 186 175 164 158 153 155 159 158 155 152 147 145 144
111 99 144 171 206 187 186 180 131 113 129 157 192 201 10 39 51 35 32 36 37 30 22 4 339 314 292 269 244 223 211 193 177 169 168 171 175 172 165 159 152 152 152 152
83 97 93 80 94 131 155 183 165 160 171 174 195 180 235 55 57 38 30 32 31 16 3 349 331 313 302 285 262 236 219 201 183 176 181 186 176 166 161 160 157 155 157 160
63 100 72 27 29 67 46 330 210 197 190 201 193 208 257 45 65 53 37 33 21 358 343 332 324 317 305 285 265 247 228 210 190 189 191 179 168 167 168 165 161 160 162 160
81 104 99 51 7 44 328 290 233 154 344 198 205 215 4 32 50 63 49 31 6 342 334 328 319 306 297 287 266 248 235 212 197 197 188 178 174 174 174 169 168 172 173 170
118 103 112 121 83 207 257 342 103 108 54 40 74 50 25 322 216 126 81 24 351 336 332 324 318 312 302 291 280 259 235 206 200 197 191 183 178 178 173 173 179 180 176 179
119 126 120 126 156 249 291 5 91 133 89 15 65 31 358 333 97 173 31 8 341 325 316 312 308 302 301 298 290 269 235 208 201 202 196 187 180 177 177 183 185 182 178 183
73 93 113 134 168 221 233 287 314 109 173 4 57 32 3 15 6 287 339 340 333 326 319 317 315 311 309 307 301 265 239 216 214 210 199 184 179 180 185 186 182 178 177 182
100 83 126 158 207 252 259 300 49 165 231 104 55 23 6 338 264 295 317 322 321 317 316 317 318 316 311 310 306 273 252 238 230 203 184 181 182 183 180 176 174 175 176 175
165 163 180 168 200 243 289 88 143 182 97 80 16 341 315 294 295 304 312 315 317 316 316 319 320 317 314 311 303 283 268 258 219 190 186 185 181 178 175 174 180 182 182 186
176 183 181 187 200 101 75 112 101 100 105 23 317 312 309 303 303 307 308 310 309 310 311 313 313 314 315 312 299 285 280 255 209 196 195 187 180 180 176 181 187 190 193 198
233 125 130 141 160 127 106 99 70 73 81 314 303 303 304 298 300 304 306 306 307 308 309 313 314 314 315 314 303 284 279 247 213 208 203 192 188 189 187 190 193 198 201 203
197 152 141 171 151 123 162 138 117 48 358 326 315 305 300 299 300 302 304 306 308 310 309 310 310 310 311 313 307 295 277 245 226 218 210 203 200 197 200 203 206 206 209 207
192 171 174 206 193 183 214 206 181 332 316 312 311 308 306 302 301 304 304 305 306 307 308 308 308 308 308 308 303 295 277 254 237 228 218 211 206 204 204 206 215 218 216 220
Height
1477 1479 1478 1477 1477 1477 1478 1483 1486 1488 1489 1492 1495 1496 1496 1497 1498 1499 1500 1501 1502 1503 1505 1507 1509 1512 1514 1516 1519 1522 1525 1528 1531 1533 1536 1538 1540 1543 1545 1547 1549 1551 1552 1553
1479 1479 1476 1476 1476 1478 1479 1483 1486 1489 1490 1493 1496 1497 1496 1496 1497 1498 1498 1499 1500 1501 1503 1505 1507 1509 1511 1514 1516 1519 1522 1524 1527 1530 1532 1535 1538 1540 1543 1545 1546 1548 1549 1550
1476 1477 1475 1476 1477 1478 1481 1483 1484 1487 1491 1494 1498 1501 1498 1495 1495 1495 1495 1496 1498 1499 1500 1502 1505 1507 1509 1511 1514 1516 1519 1522 1524 1527 1530 1532 1535 1537 1539 1541 1543 1545 1546 1547
1476 1475 1475 1476 1478 1478 1481 1481 1482 1485 1492 1497 1499 1503 1497 1494 1493 1492 1492 1492 1494 1496 1497 1500 1502 1504 1506 1509 1511 1514 1516 1519 1521 1523 1526 1528 1530 1533 1535 1538 1540 1542 1543 1544
1476 1475 1475 1476 1477 1477 1480 1480 1483 1487 1492 1498 1499 1504 1497 1492 1492 1489 1487 1487 1489 1492 1494 1496 1499 1502 1504 1507 1509 1511 1514 1516 1518 1520 1523 1525 1528 1530 1532 1535 1536 1538 1539 1540
1476 1476 1476 1476 1475 1476 1479 1483 1487 1491 1495 1502 1499 1503 1498 1491 1486 1483 1483 1484 1486 1488 1491 1494 1497 1500 1502 1504 1507 1509 1511 1513 1515 1517 1519 1522 1524 1527 1529 1530 1532 1534 1535 1536
1478 1478 1477 1476 1476 1479 1481 1488 1496 1499 1503 1502 1496 1499 1494 1482 1479 1479 1479 1481 1483 1485 1488 1491 1494 1496 1499 1502 1504 1506 1508 1510 1512 1514 1516 1518 1520 1523 1525 1527 1529 1530 1531 1532
1482 1484 1481 1479 1479 1481 1483 1487 1495 1500 1503 1504 1497 1498 1489 1480 1478 1478 1478 1480 1482 1484 1486 1489 1492 1494 1497 1500 1502 1504 1505 1507 1509 1511 1512 1514 1517 1519 1521 1524 1525 1527 1528 1529
1483 1486 1482 1480 1480 1480 1483 1488 1487 1495 1499 1503 1500 1492 1486 1481 1481 1480 1480 1481 1482 1484 1486 1488 1491 1493 1496 1498 1500 1502 1503 1504 1506 1508 1509 1511 1514 1516 1518 1520 1522 1523 1524 1524
1480 1485 1484 1482 1481 1482 1483 1485 1491 1496 1501 1503 1499 1496 1495 1487 1485 1484 1483 1483 1484 1485 1487 1488 1490 1492 1495 1497 1498 1499 1500 1502 1503 1505 1506 1509 1511 1512 1514 1516 1518 1519 1519 1519
1479 1486 1488 1487 1488 1487 1486 1486 1490 1497 1499 1504 1505 1503 1489 1488 1486 1486 1485 1485 1486 1487 1488 1489 1490 1492 1494 1495 1496 1497 1497 1499 1500 1501 1503 1505 1507 1508 1510 1512 1514 1514 1515 1514
1481 1487 1492 1491 1488 1486 1486 1486 1490 1498 1502 1506 1508 1505 1488 1487 1487 1487 1487 1488 1488 1489 1489 1490 1491 1492 1493 1493 1494 1494 1494 1495 1497 1498 1499 1501 1503 1504 1506 1508 1510 1510 1510 1510
1481 1489 1498 1498 1496 1490 1487 1486 1488 1494 1502 1508 1509 1504 1491 1490 1490 1490 1490 1490 1490 1490 1491 1491 1491 1491 1491 1491 1491 1491 1491 1492 1493 1495 1496 1497 1499 1501 1503 1504 1505 1506 1505 1505
1480 1488 1495 1497 1493 1490 1489 1488 1488 1494 1504 1503 1502 1499 1495 1494 1493 1493 1492 1492 1492 1491 1491 1491 1490 1490 1489 1489 1488 1488 1488 1489 1489 1491 1492 1494 1496 1497 1499 1500 1500 1501 1501 1500
1481 1489 1489 1489 1487 1487 1487 1488 1489 1493 1495 1499 1497 1497 1497 1496 1495 1495 1494 1493 1493 1492 1491 1491 1489 1488 1487 1486 1485 1484 1484 1485 1486 1487 1488 1490 1492 1493 1495 1495 1496 1496 1496 1495
1484 1489 1491 1491 1488 1488 1489 1489 1489 1490 1492 1494 1495 1497 1496 1496 1495 1495 1495 1494 1493 1492 1491 1489 1487 1486 1484 1482 1481 1480 1480 1481 1482 1483 1484 1486 1488 1489 1490 1491 1492 1491 1491 1490
1488 1491 1496 1498 1492 1491 1497 1492 1490 1490 1492 1492 1494 1497 1496 1496 1495 1495 1495 1494 1493 1491 1489 1487 1485 1482 1480 1479 1477 1476 1476 1476 1477 1478 1480 1481 1483 1485 1486 1487 1487 1487 1486 1485
1488 1493 1500 1501 1497 1503 1497 1491 1490 1494 1497 1496 1496 1497 1496 1495 1495 1494 1494 1493 1491 1489 1486 1484 1481 1479 1476 1474 1472 1471 1471 1471 1471 1473 1474 1476 1478 1480 1481 1482 1482 1482 1481 1481
1486 1492 1499 1503 1503 1499 1494 1492 1492 1494 1498 1499 1498 1497 1496 1494 1493 1493 1492 1491 1489 1487 1484 1481 1478 1475 1473 1470 1468 1466 1465 1465 1466 1467 1469 1471 1473 1474 1476 1476 1477 1477 1477 1477
1489 1491 1498 1501 1500 1499 1494 1492 1491 1493 1499 1499 1497 1497 1495 1493 1495 1493 1490 1488 1486 1483 1481 1478 1474 1472 1469 1466 1464 1462 1461 1461 1461 1462 1464 1466 1468 1469 1470 1471 1472 1472 1472 1473
1492 1495 1499 1500 1500 1497 1494 1491 1491 1499 1498 1498 1497 1496 1496 1495 1495 1492 1488 1486 1483 1480 1477 1474 1471 1468 1465 1462 1460 1458 1457 1457 1457 1458 1459 1460 1462 1463 1465 1466 1466 1467 1468 1468
1494 1497 1499 1500 1500 1500 1492 1492 1495 1496 1496 1496 1496 1495 1494 1493 1491 1488 1486 1483 1480 1477 1474 1470 1467 1464 1461 1459 1457 1454 1454 1453 1453 1453 1454 1455 1456 1458 1459 1460 1461 1462 1463 1463
1492 1493 1494 1495 1497 1494 1492 1493 1494 1495 1495 1495 1494 1493 1492 1490 1488 1485 1482 1479 1477 1474 1470 1467 1464 1460 1458 1456 1453 1451 1450 1449 1448 1448 1449 1450 1451 1452 1453 1454 1455 1456 1457 1458
1491 1490 1492 1493 1494 1494 1493 1494 1494 1494 1494 1494 1493 1491 1489 1487 1485 1482 1479 1476 1473 1470 1467 1463 1460 1457 1454 1452 1450 1448 1446 1445 1444 1444 1444 1445 1446 1446 1448 1449 1450 1451 1452 1453
1488 1490 1492 1493 1493 1494 1494 1494 1494 1493 1492 1491 1490 1488 1486 1484 1481 1478 1475 1472 1469 1466 1463 1459 1456 1453 1450 1447 1445 1443 1442 1440 1439 1439 1439 1439 1440 1441 1442 1443 1444 1445 1447 1448
1487 1489 1491 1491 1490 1491 1492 1492 1492 1491 1490 1489 1487 1485 1483 1481 1477 1474 1471 1468 1465 1461 1458 1455 1452 1448 1445 1443 1440 1438 1437 1436 1435 1434 1434 1434 1435 1435 1436 1437 1439 1440 1442 1443